TimeCDT,TemperatureF,Dew PointF,Humidity,Sea Level PressureIn,VisibilityMPH,Wind Direction,Wind SpeedMPH,Gust SpeedMPH,PrecipitationIn,Events,Conditions,WindDirDegrees,DateUTC
12:15 AM,57.6,36.9,46,29.96,10.0,SE,3.5,-,N/A,,Mostly Cloudy,130,2013-10-03 05:15:00
12:35 AM,57.6,36.5,45,29.96,10.0,SE,6.9,-,N/A,,Scattered Clouds,130,2013-10-03 05:35:00
12:55 AM,57.4,36.5,46,29.95,10.0,SE,4.6,-,N/A,,Mostly Cloudy,130,2013-10-03 05:55:00
1:15 AM,58.1,36.3,44,29.96,10.0,SE,8.1,-,N/A,,Overcast,140,2013-10-03 06:15:00
1:35 AM,58.1,35.8,43,29.95,10.0,SSE,6.9,-,N/A,,Overcast,150,2013-10-03 06:35:00
1:55 AM,58.1,35.8,43,29.95,10.0,SE,5.8,-,N/A,,Overcast,140,2013-10-03 06:55:00
2:15 AM,58.1,35.6,43,29.94,10.0,SE,5.8,-,N/A,,Overcast,140,2013-10-03 07:15:00
2:35 AM,57.4,35.1,43,29.94,10.0,SSE,6.9,-,N/A,,Mostly Cloudy,150,2013-10-03 07:35:00
2:55 AM,57.4,34.7,43,29.92,10.0,SSE,6.9,-,N/A,,Scattered Clouds,150,2013-10-03 07:55:00
3:15 AM,58.1,34.9,42,29.92,10.0,SSE,5.8,-,N/A,,Mostly Cloudy,160,2013-10-03 08:15:00
3:35 AM,58.8,36.7,44,29.95,10.0,WSW,3.5,21.9,N/A,,Overcast,250,2013-10-03 08:35:00
3:55 AM,58.6,38.3,47,29.96,10.0,NNW,4.6,-,N/A,,Overcast,340,2013-10-03 08:55:00
4:15 AM,56.3,42.4,60,29.95,10.0,NNE,5.8,-,N/A,Rain,Light Rain,20,2013-10-03 09:15:00
4:35 AM,52.7,45.3,76,29.94,10.0,ENE,5.8,-,0.01,Rain,Light Rain,70,2013-10-03 09:35:00
4:55 AM,51.8,46.0,81,29.93,10.0,NE,3.5,-,0.01,Rain,Light Rain,40,2013-10-03 09:55:00
5:15 AM,51.3,45.7,81,29.93,10.0,East,3.5,-,N/A,,Overcast,80,2013-10-03 10:15:00
5:35 AM,50.7,46.2,85,29.91,10.0,Calm,Calm,-,N/A,,Overcast,0,2013-10-03 10:35:00
5:55 AM,51.1,46.0,83,29.93,10.0,NNE,3.5,-,N/A,Rain,Light Rain,30,2013-10-03 10:55:00
6:15 AM,50.4,46.8,87,29.95,10.0,NNW,4.6,-,N/A,,Overcast,340,2013-10-03 11:15:00
6:35 AM,50.4,46.8,87,29.94,10.0,East,4.6,-,N/A,,Mostly Cloudy,100,2013-10-03 11:35:00
6:55 AM,49.6,46.4,89,29.94,10.0,Calm,Calm,-,N/A,,Scattered Clouds,0,2013-10-03 11:55:00
7:15 AM,50.0,45.5,85,29.94,10.0,Calm,Calm,-,N/A,,Scattered Clouds,0,2013-10-03 12:15:00
7:35 AM,50.0,45.7,85,29.93,10.0,ENE,3.5,-,N/A,,Mostly Cloudy,70,2013-10-03 12:35:00
7:55 AM,50.0,45.3,84,29.93,10.0,ENE,3.5,-,N/A,,Scattered Clouds,70,2013-10-03 12:55:00
8:15 AM,51.3,46.4,83,29.93,10.0,NE,5.8,-,N/A,,Clear,50,2013-10-03 13:15:00
8:35 AM,52.2,46.6,81,29.92,10.0,ENE,6.9,-,N/A,,Clear,60,2013-10-03 13:35:00
8:55 AM,54.0,46.9,77,29.91,10.0,East,8.1,-,N/A,,Clear,80,2013-10-03 13:55:00
9:15 AM,55.4,47.3,74,29.92,10.0,NNE,9.2,-,N/A,,Clear,30,2013-10-03 14:15:00
9:35 AM,55.9,47.5,73,29.92,10.0,NE,6.9,-,N/A,,Clear,50,2013-10-03 14:35:00
9:55 AM,57.2,47.7,70,29.92,10.0,NNE,4.6,-,N/A,,Clear,30,2013-10-03 14:55:00
10:15 AM,59.0,48.2,67,29.92,10.0,ENE,5.8,-,N/A,,Clear,60,2013-10-03 15:15:00
10:35 AM,59.0,48.4,68,29.93,10.0,NNE,4.6,-,N/A,,Clear,30,2013-10-03 15:35:00
10:55 AM,59.5,48.9,68,29.92,10.0,ENE,8.1,-,N/A,,Clear,70,2013-10-03 15:55:00
11:15 AM,60.1,49.6,68,29.92,10.0,East,8.1,-,N/A,,Clear,80,2013-10-03 16:15:00
11:35 AM,61.0,50.4,68,29.92,10.0,ESE,5.8,-,N/A,,Clear,110,2013-10-03 16:35:00
11:55 AM,61.3,50.9,69,29.93,10.0,East,6.9,-,N/A,,Clear,80,2013-10-03 16:55:00
12:15 PM,63.0,52.0,67,29.93,10.0,ENE,8.1,-,N/A,,Clear,70,2013-10-03 17:15:00
12:35 PM,65.3,52.9,64,29.91,10.0,East,3.5,-,N/A,,Clear,90,2013-10-03 17:35:00
12:55 PM,65.7,53.4,65,29.91,10.0,East,6.9,-,N/A,,Clear,80,2013-10-03 17:55:00
1:15 PM,66.2,54.1,65,29.91,10.0,East,6.9,-,N/A,,Clear,90,2013-10-03 18:15:00
1:35 PM,66.9,54.7,65,29.89,10.0,East,6.9,-,N/A,,Clear,80,2013-10-03 18:35:00
1:55 PM,66.7,55.0,66,29.90,10.0,East,5.8,-,N/A,,Clear,80,2013-10-03 18:55:00
2:15 PM,66.6,55.0,66,29.89,10.0,East,5.8,-,N/A,,Mostly Cloudy,90,2013-10-03 19:15:00
2:35 PM,66.2,55.4,68,29.88,10.0,NE,9.2,-,N/A,,Mostly Cloudy,40,2013-10-03 19:35:00
2:55 PM,65.7,55.6,70,29.88,10.0,East,5.8,-,N/A,,Overcast,80,2013-10-03 19:55:00
3:15 PM,62.4,57.9,85,29.87,3.0,NE,6.9,-,0.06,Rain,Light Rain,50,2013-10-03 20:15:00
3:35 PM,61.3,57.7,88,29.87,10.0,ENE,6.9,-,0.06,Rain,Light Rain,60,2013-10-03 20:35:00
3:55 PM,60.8,57.6,89,29.87,10.0,ENE,6.9,-,0.06,,Light Drizzle,70,2013-10-03 20:55:00
4:15 PM,60.3,57.6,91,29.88,10.0,ENE,6.9,-,N/A,Rain,Light Rain,70,2013-10-03 21:15:00
4:35 PM,59.9,57.6,92,29.89,10.0,ENE,4.6,-,N/A,Rain,Light Rain,60,2013-10-03 21:35:00
4:55 PM,59.2,57.2,93,29.89,10.0,NNE,4.6,-,0.03,Rain,Light Rain,30,2013-10-03 21:55:00
5:15 PM,59.2,57.2,93,29.90,10.0,NE,8.1,-,N/A,Rain,Light Rain,50,2013-10-03 22:15:00
5:35 PM,59.0,57.4,94,29.91,7.0,NNE,6.9,-,0.01,Rain,Rain,20,2013-10-03 22:35:00
5:55 PM,58.3,57.4,97,29.89,4.0,NE,15.0,-,0.06,Rain,Rain,40,2013-10-03 22:55:00
6:15 PM,58.3,57.2,96,29.89,7.0,ENE,10.4,-,0.01,Rain,Light Rain,70,2013-10-03 23:15:00
6:35 PM,58.3,57.0,96,29.89,10.0,NE,10.4,-,0.01,,Overcast,40,2013-10-03 23:35:00
6:55 PM,57.7,56.7,96,29.89,10.0,ENE,9.2,-,0.01,,Overcast,60,2013-10-03 23:55:00
7:15 PM,57.6,56.3,96,29.90,10.0,ENE,10.4,-,N/A,,Overcast,60,2013-10-04 00:15:00
7:35 PM,57.4,56.1,96,29.91,10.0,ENE,12.7,17.3,N/A,,Overcast,60,2013-10-04 00:35:00
7:55 PM,57.2,55.4,94,29.91,10.0,ENE,12.7,-,N/A,,Overcast,70,2013-10-04 00:55:00
8:15 PM,56.7,54.5,92,29.92,10.0,ENE,13.8,20.7,N/A,,Overcast,70,2013-10-04 01:15:00
8:35 PM,55.8,53.6,92,29.92,10.0,ENE,15.0,-,N/A,,Overcast,60,2013-10-04 01:35:00
8:55 PM,55.6,53.1,91,29.93,10.0,East,12.7,-,N/A,,Overcast,80,2013-10-04 01:55:00
9:15 PM,55.4,53.1,92,29.92,10.0,ENE,10.4,-,N/A,,Overcast,70,2013-10-04 02:15:00
9:35 PM,55.2,52.5,91,29.92,10.0,East,12.7,16.1,N/A,,Overcast,80,2013-10-04 02:35:00
9:55 PM,55.0,52.2,90,29.92,10.0,ENE,9.2,-,N/A,,Overcast,70,2013-10-04 02:55:00
10:15 PM,54.7,51.8,90,29.92,10.0,ENE,10.4,-,N/A,,Overcast,70,2013-10-04 03:15:00
10:35 PM,54.5,51.8,91,29.91,10.0,ENE,11.5,-,N/A,,Overcast,70,2013-10-04 03:35:00
11:35 PM,54.3,52.3,93,29.92,10.0,ENE,9.2,-,N/A,,Overcast,70,2013-10-04 04:35:00
11:55 PM,54.5,52.3,92,29.93,10.0,NE,5.8,-,N/A,,Overcast,50,2013-10-04 04:55:00